Regional Weather Roundup
Issued by NWS Midland/Odessa, TX

Skip options and go directly to product.
Home | Oldest Version | Previous Version | Current Version | All | Text Only | Save Text | Print | Product List | Glossary Off

Skip product version selection by date and time.   

905
ASUS44 KMAF 252110
RWRMAF
MIDLAND AREA WEATHER ROUNDUP
NATIONAL WEATHER SERVICE MIDLAND TX
400 PM CDT THU AUG 25 2016

...IN SOUTHWEST TEXAS AND SOUTHEAST NEW MEXICO...

CITY           SKY/WX    TMP DP  RH WIND       PRES   REMARKS
ALPINE         PTSUNNY   80  56  43 SW5       30.21F
ANDREWS        NOT AVBL
ARTESIA        DRIZZLE   77  64  65 CALM      30.10F
BIG SPRING     MOSUNNY   93  62  35 S5        30.05F
CARLSBAD       CLOUDY    79  63  57 CALM      30.08F
DRYDEN           N/A     93  58  30 SE12G21   30.00F
FORT STOCKTON  MOSUNNY   89  58  34 VRB3      30.04F
GUAD PASS      CLOUDY    67  62  84 E24       30.23F
HOBBS          MOSUNNY   77  66  69 SE5       30.11F
MARFA          MOSUNNY  N/A N/A N/A VRB3      30.19F
MIDLAND AIRPK  SUNNY     93  56  28 S8        30.03F
MIDLAND INTL   MOSUNNY   91  58  32 S12G21    30.03F
ODESSA         MOSUNNY   87  61  41 SW6       30.05F
PECOS          SUNNY     79  68  70 W8        30.06F
PRESIDIO       NOT AVBL
SEMINOLE       PTSUNNY   83  64  52 E6        30.09F
SNYDER           N/A     92  60  34 S6        30.04F
WINK           CLOUDY    82  66  58 W9        30.04F
$$
...OTHER STATIONS IN TEXAS...

CITY           SKY/WX    TMP DP  RH WIND       PRES   REMARKS
ABILENE        SUNNY     92  60  34 SE13G20   30.03F
AMARILLO       CLOUDY    82  60  47 N8        30.13F
AUSTIN         MOSUNNY   90  70  51 CALM      30.01F
BROWNSVILLE    MOSUNNY   93  73  52 E15       29.95F HX 102
CORPUS CHRISTI MOSUNNY   92  74  55 E15       29.97F HX 101
DALLAS FTW     PTSUNNY   94  65  38 S8        30.00F
DEL RIO        MOSUNNY   90  66  45 SE14G20   29.97F
EL PASO        PTSUNNY   84  54  35 CALM      30.07F
HOUSTON INT    CLOUDY    79  74  84 S3        30.00F
LUBBOCK        PTSUNNY   81  65  58 SE10      30.09F
SAN ANGELO     SUNNY     95  45  17 S8        30.02F
SAN ANTONIO    MOSUNNY   90  70  51 E9        30.02F
WACO           SUNNY     92  71  50 S9        30.02F
WICHITA FALLS  NOT AVBL
$$
...OTHER LOCATIONS IN NEW MEXICO...

CITY           SKY/WX    TMP DP  RH WIND       PRES   REMARKS
ALAMAGORDO     MOSUNNY   86  48  26 S9        30.09F
ALBUQUERQUE    CLOUDY    81  40  23 NW5       30.17F
CANNON AFB     MOSUNNY   79  60  51 SE1       30.13F
CLOVIS         PTSUNNY   82  59  44 SE8G20    30.13F
HOLLOMAN AFB   NOT AVBL
ROSWELL        CLOUDY    84  57  39 CALM      30.08F
RUIDOSO          N/A     68  46  45 CALM      30.30F
SANTA FE       CLOUDY    70  42  36 N10       30.24F
TRUTH OR CONSE FAIR      86  37  17 NE6       30.12F
TUCUMCARI      PTSUNNY   81  57  43 VRB7      30.13F
$$

USA.gov is the U.S. government's official web portal to all federal, state and local government web resources and services.